sat.trackr.live / text

‹ back to catalog

DSN-3 (KIRAMEKI-3)

NORAD 61733 · 2024-198A

PAYLOAD ACTIVE UNKNOWN

§ Identity

Operator
Country
JPN
Launch date
2024-11-04
Launch site
TANSC
Launch vehicle
Mass (kg)
RCS (m²)

Purposes: comms

External: N2YO · Heavens-Above · Gunter

§ Orbital elements

Epoch: 2026-05-25T05:02:38.473728Z

Period
1,436.10 min
Inclination
0.0142°
Eccentricity
0.0000345
Mean motion
1.00271779 rev/d
Perigee alt
35,785.1 km
Apogee alt
35,788.1 km
Semi-major
42,164.7 km
B*
0.0000e+0
RAAN
287.0207°
Arg perigee
208.5147°
Mean anomaly
326.9965°
Rev number
569

§ Raw data

DSN-3 (KIRAMEKI-3)1 61733U 24198A   26145.21016752 -.00000252  00000+0  00000+0 0  99942 61733   0.0142 287.0207 0000345 208.5147 326.9965  1.00271779  5698

JSON: /api/v1/satellites/61733 · /tle

For live sub-satellite position, see the globe view (requires WebGL).

§ Visibility from observer

Set your observer location to see the next 7 days of passes ≥ 10°. The values pass through the URL so the page stays shareable.

No JS? Fill the form by hand. The geolocation button needs JavaScript.